Regional Weather Roundup
Issued by NWS

Home | Current Version | Previous Version | Text Only | Print | Product List | Glossary Off
Versions: 1 2 3 4 5 6 7 8 9 10 11 12 13 14 15 16 17 18 19 20 21 22 23 24 25 26 27 28 29 30 31 32 33 34 35 36 37 38 39 40 41 42 43 44 45 46 47 48 49 50

000
ASUS43 KLOT 241400
RWRIL

ILLINOIS REGIONAL WEATHER ROUNDUP
NATIONAL WEATHER SERVICE CHICAGO/ROMEOVILLE IL
900 AM CDT FRI OCT 24 2014

NOTE: "FAIR" INDICATES FEW OR NO CLOUDS BELOW 12,000 FEET WITH NO
SIGNIFICANT WEATHER AND/OR OBSTRUCTIONS TO VISIBILITY.

* THESE STATIONS ARE NOT UNDER NWS QUALITY CONTROL. THEY ALSO MAY NOT
  REPORT WEATHER SUCH AS PRECIPITATION OR FOG.

ILZ001-002-007-009-015-016-024-241500-
NORTHWEST ILLINOIS

CITY           SKY/WX    TMP DP  RH WIND       PRES   REMARKS
MOLINE         FOG       54  53  97 S6        30.07R VSB 3/4
STERLING*      CLOUDY    46  45  93 CALM      30.08S VSB 1/4
$$

ILZ003-004-008-010-011-017-018-241500-
NORTH CENTRAL ILLINOIS

CITY           SKY/WX    TMP DP  RH WIND       PRES   REMARKS
ROCKFORD       FOG       50  49  96 CALM      30.09R VSB 3/4
$$

ILZ005-006-012>014-019>023-241500-
NORTHEAST ILLINOIS

CITY           SKY/WX    TMP DP  RH WIND       PRES   REMARKS
CHICAGO-OHARE  PTSUNNY   53  46  77 NW6       30.06S
CHICAGO-MIDWAY CLOUDY    55  47  74 SW6       30.07R
AURORA         CLOUDY    50  45  83 CALM      30.08R HAZE
WAUKEGAN       CLOUDY    50  48  93 W6        30.06S FOG
DUPAGE AIRPORT CLOUDY    53  47  79 N3        30.06S
WHEELING       MOSUNNY   54  48  80 W5        30.08S
NORTHERLY ISL    N/A     55  46  71 SW5         N/A
$$

LMZ740>746-241500-
SOUTHERN LAKE MICHIGAN

STATION/POSITION SKY/WX   TEMP    WIND        PRES    VSBY  WAVE
                          AIR SEA DIR/SP/G                  HT/PER
                          (F)     (DEG/KT/KT) (MB)    (MI)  (FT/S)
SOUTHERN BUOY              53 54  270/  6/  8 1017.6R         1/ 4
WAUKEGAN HARBOR            52     260/  5/  8   N/A
HARRISON CRIB              54     270/  4/  5   N/A
BURNHAM HARBOR             55     250/  5/  7   N/A
CALUMET HARBOR             53     220/  4/  6 1017.0R
MICHIGAN CITY              52     150/  9/ 11   N/A
$$

ILZ025>027-034>036-040-047-049-050-058-095>099-241500-
WEST-CENTRAL ILLINOIS

CITY           SKY/WX    TMP DP  RH WIND       PRES   REMARKS
QUINCY         FOG       55  54  96 SW7       30.09R VSB<1/4
$$

ILZ028>032-037-038-041>044-048-051>054-059>061-241500-
CENTRAL ILLINOIS

CITY           SKY/WX    TMP DP  RH WIND       PRES   REMARKS
DECATUR        SUNNY     53  49  86 CALM      30.10S
PEORIA         FOG       52  50  93 CALM      30.10R VSB<1/4
SPRINGFIELD    FOG       54  53  97 CALM      30.11R VSB 1/4
TAYLORVILLE    NOT AVBL
$$

ILZ033-039-045-046-055>057-062-063-241500-
EAST-CENTRAL ILLINOIS

CITY           SKY/WX    TMP DP  RH WIND       PRES   REMARKS
CHAMPAIGN      MOSUNNY   52  49  89 SW8       30.10R
MATTOON        CLOUDY    54  47  77 W5        30.10R
$$

ILZ079-100>102-241500-
SOUTHWEST ILLINOIS

CITY           SKY/WX    TMP DP  RH WIND       PRES   REMARKS
ALTON          CLOUDY    55  52  88 SW5       30.11S
BELLEVILLE     MOSUNNY   54  53  95 CALM      30.11R
CAHOKIA*       CLOUDY    56  52  86 SW7       30.12R
$$

ILZ064>066-069>071-074>076-080>082-084>086-088>090-092>094-241500-
SOUTH-CENTRAL ILLINOIS

CITY           SKY/WX    TMP DP  RH WIND       PRES   REMARKS
CARBONDALE     CLOUDY    55  48  77 SW3       30.13R
MARION         CLOUDY    55  50  82 SW6       30.14R
MT. VERNON     CLOUDY    52  46  82 CALM      30.13R
$$

ILZ067-068-072-073-078-083-087-091-241500-
SOUTHEAST ILLINOIS

CITY           SKY/WX    TMP DP  RH WIND       PRES   REMARKS
LAWRENCEVILLE  CLOUDY    53  48  83 S5        30.13R
$$

ABBREVIATIONS USED IN REMARKS
   TC - TEMPERATURE IN CELSIUS
  WCI - WIND CHILL INDEX
   HX - HEAT INDEX
  VSB - VISIBILITY
$$




USA.gov is the U.S. government's official web portal to all federal, state and local government web resources and services.